Tracking 33747 objects as of 12-Apr-2026
HD Live streaming from Space Station
objects crossing your sky now

CZ-2F R/B

Track CZ-2F R/B now!
10-day predictions


NORAD ID: 67690
Int'l Code: 2026-024B
Perigee: 349.8 km
Apogee: 582.8 km
Inclination: 50.0 °
Period: 93.8 minutes
Semi major axis: 6837 km
RCS: Unknown
Launch date: February 7, 2026
Source: People's Republic of China (PRC)
Launch site: Jiuquan Satellite Launch Center, China (JSC)

Note: This is a ROCKET BODY
Your satellite tracking list
Your tracking list is empty




NASA's NSSDC Master Catalog

Two Line Element Set (TLE):
1 67690U 26024B   26101.57869427  .00015676  00000-0  28165-3 0  9990
2 67690  49.9848 209.4778 0170385  51.4095 310.1988 15.35588209  9743
Source of the keplerian elements: AFSPC